Skip Page Navigation
NASA JPL Caltech
NASA Logo - Jet Propulsion Laboratory + View the NASA Portal
+ Near-Earth Object (NEO) Project
Search JPL
JPL Home Earth Solar System Stars & Galaxies Technology
JPL Solar System Dynamics
BODIES ORBITS EPHEMERIDES TOOLS PHYSICAL DATA DISCOVERY FAQ SITE MAP
JPL Small-Body Database Browser
Search: [ help ]  
(2009 WA52)
Classification: Apollo [NEO]          SPK-ID: 3478348
Ephemeris | Orbit Diagram | Orbital Elements | Physical Parameters | Close-Approach Data ]

[ hide orbit diagram ]
Orbit Diagram
Note: Make sure you have Java enabled on your browser to see the applet. This applet is provided as a 3D orbit visualization tool. The applet was implemented using 2-body methods, and hence should not be used for determining accurate long-term trajectories (over several years or decades) or planetary encounter circumstances. For accurate long-term ephemerides, please instead use our Horizons system.
Orbit Viewer

Additional Notes: the orbits shown in the applet are color coded. The planets are white lines, and the asteroid/comet is a blue line. The bright white line indicates the portion of the orbit that is above the ecliptic plane, and the darker portion is below the ecliptic plane. Likewise for the asteroid/comet orbit, the light blue indicates the portion above the ecliptic plane, and the dark blue the portion below the ecliptic plane.

Orbit Viewer applet originally written and kindly provided by Osamu Ajiki (AstroArts), and further modified by Ron Baalke (JPL).


Orbital Elements at Epoch 2455158.5 (2009-Nov-23.0) TDB
Reference: JPL 5 (heliocentric ecliptic J2000)
 Element Value Uncertainty (1-sigma)   Units 
e .4744947481900378 0.0011652  
a 1.798015980718306 0.0038592 AU
q .9448668407057098 6.7074e-05 AU
i 1.786259345392933 0.0034567 deg
node 253.3980652017777 0.0021083 deg
peri 213.9949108712872 0.002088 deg
M 344.1566625020666 0.055111 deg
tp 2455197.255462224716
(2009-Dec-31.75546222)
0.01004 JED
period 880.6204123795034
2.41
2.8352
0.007762
d
yr
n .4088026974383351 0.0013162 deg/d
Q 2.651165120730903 0.0056903 AU
  Orbit Determination Parameters
   # obs. used (total)      43  
   data-arc span      9 days  
   first obs. used      2009-11-22  
   last obs. used      2009-12-01  
   planetary ephem.      DE405  
   SB-pert. ephem.      SB405-CPV-2  
   condition code      8  
   fit RMS      .67519  
   data source      ORB  
   producer      Otto Matic  
   solution date      2011-Sep-14 20:47:50  

Additional Information
 Earth MOID = .00256555 AU 
 T_jup = 3.928 
[ show covariance matrix ]

Ephemeris | Orbit Diagram | Orbital Elements | Physical Parameters | Close-Approach Data ]

Physical Parameter Table
Parameter Symbol Value Units Sigma Reference Notes
absolute magnitude H 26.347 mag .40162 5 autocmod 2.5a

[ show close-approach data ]
Ephemeris | Orbit Diagram | Orbital Elements | Physical Parameters | Close-Approach Data ]
ABOUT SSD CREDITS/AWARDS PRIVACY/COPYRIGHT GLOSSARY LINKS
FirstGov 2012-Feb-08 18:15 UT
(server date/time)  
NASA Home Page
Site Manager:   Donald K. Yeomans
Webmaster  Alan B. Chamberlin